Temperature
18 18 18 18 18 18 18 18 18 18 18 18 18 18 18 18 18 18 18 18 18 18 18 18 18 17 17 17 17 17 17 17 17 17 17 17 17 17 16 16 16 16 16
18 18 18 18 18 18 18 18 18 18 18 18 18 18 18 18 18 17 18 18 18 18 18 18 18 18 18 18 18 17 17 17 17 17 17 16 16 16 16 16 16 16 16
18 18 18 18 18 18 18 18 18 18 18 18 18 18 18 18 18 18 18 18 18 18 18 18 18 17 17 18 18 18 18 17 17 17 17 17 17 16 16 16 16 16 16
18 18 18 18 18 18 18 18 18 18 18 18 18 18 18 18 18 18 18 18 18 18 18 18 18 18 17 18 17 18 17 17 17 17 17 17 17 17 17 16 16 16 16
18 18 18 18 18 18 18 18 18 18 18 18 18 18 18 18 18 18 18 18 18 17 18 18 18 18 18 18 17 17 17 17 17 17 17 17 17 17 17 17 16 16 16
18 18 18 18 18 18 18 18 18 18 18 18 18 18 18 18 18 18 18 18 18 17 17 17 17 17 18 18 18 18 17 17 17 17 17 17 17 17 17 17 17 16 16
18 18 18 18 18 18 18 18 18 18 18 18 18 18 18 18 18 18 18 18 18 17 17 17 17 17 17 17 17 17 17 17 17 17 17 17 17 17 17 17 16 16 16
18 18 18 18 18 18 18 18 18 18 18 18 18 19 19 19 18 18 18 18 18 18 17 17 17 17 17 17 17 17 17 17 17 17 17 17 17 17 17 17 16 16 16
18 18 18 18 17 17 17 17 17 17 18 18 18 18 19 20 19 19 18 18 17 17 17 17 17 17 17 17 16 17 17 17 17 17 17 17 17 16 16 16 16 16 16
18 18 18 17 17 17 17 17 17 17 17 18 18 18 18 18 19 19 19 18 18 17 17 17 17 17 17 16 16 17 17 17 17 17 17 17 16 16 16 16 16 16 16
18 18 18 18 17 17 17 17 17 17 17 17 17 17 17 17 18 18 19 18 18 18 17 17 17 17 17 16 16 16 17 17 17 17 17 16 16 16 16 16 16 16 16
18 18 18 18 17 17 17 17 17 17 17 17 17 17 17 18 18 18 18 18 18 18 17 17 17 17 17 17 17 17 17 17 17 16 16 16 16 16 16 16 16 16 16
18 18 17 18 17 17 17 17 17 17 17 17 17 17 17 17 17 17 18 18 18 18 17 17 17 17 17 16 16 16 16 16 16 16 16 16 16 16 16 16 16 16 16
18 18 17 17 17 17 17 17 17 17 17 17 16 16 17 17 17 17 17 17 18 18 18 17 17 17 17 16 16 16 16 16 16 16 16 16 16 16 16 16 16 16 15
17 17 17 17 17 17 17 17 17 17 16 16 16 16 16 16 16 16 16 17 17 18 18 17 17 17 16 16 16 16 16 16 16 16 16 16 16 16 16 15 15 15 15
17 17 17 17 17 17 17 17 16 16 16 16 16 16 16 16 16 16 16 16 16 17 17 17 17 17 16 16 16 16 15 16 16 16 16 15 15 15 15 15 15 15 15
17 17 17 17 17 16 16 16 16 16 16 16 16 16 16 16 16 16 16 16 16 16 16 17 16 16 16 16 16 16 15 15 15 15 15 15 15 15 15 15 15 15 15
17 17 17 17 16 16 16 16 16 16 16 16 16 16 16 16 16 16 15 15 16 16 16 16 16 16 15 15 15 15 15 15 15 15 15 15 15 15 15 15 15 15 15
17 16 16 16 16 16 16 16 16 15 15 15 15 15 15 15 15 15 15 15 15 15 15 15 16 15 15 15 15 15 15 15 15 15 15 15 15 15 15 15 15 15 14
17 17 16 16 16 16 16 16 16 15 15 15 15 15 15 15 15 15 15 15 15 15 15 15 15 15 15 15 15 15 15 15 14 14 14 14 14 14 14 14 14 14 14
17 16 16 16 16 16 16 15 15 15 15 15 15 15 15 15 15 15 15 15 15 15 15 15 15 15 15 15 14 14 15 14 14 14 14 14 14 14 14 14 14 14 14
16 16 16 16 16 16 16 15 15 15 15 15 14 14 15 15 15 15 15 14 14 14 14 14 15 15 14 14 14 14 14 14 14 14 13 14 14 14 14 13 14 14 13
16 16 16 16 16 16 16 15 15 15 14 14 14 14 14 14 14 14 14 14 14 14 14 14 14 14 14 14 13 13 13 13 13 13 13 13 13 13 13 13 13 13 13
16 16 16 16 15 15 15 15 15 14 14 14 14 14 14 14 14 14 14 14 14 14 14 14 14 14 13 13 13 13 13 13 13 13 13 13 13 13 13 13 13 13 13
16 16 15 15 15 15 15 15 14 14 14 14 14 14 13 13 14 14 13 13 13 13 14 13 13 13 13 13 13 13 13 13 13 13 13 13 13 13 13 13 13 13 12
16 15 15 15 15 15 15 14 14 14 14 14 14 14 14 14 13 13 13 13 13 13 13 13 13 13 13 13 13 13 13 13 13 13 13 13 13 13 13 13 12 12 12
Wind_Speed
1 1 1 1 2 2 3 2 2 2 2 2 2 2 2 2 1 2 5 7 5 4 4 4 5 6 7 6 7 7 8 8 9 9 9 10 10 11 11 11 11 10 11
1 1 2 1 1 2 2 2 2 2 2 2 2 2 2 2 3 2 3 7 8 6 4 4 5 5 5 6 6 7 7 8 8 9 9 9 9 10 10 11 12 12 12
1 1 1 1 1 2 2 3 2 3 3 3 2 2 2 2 2 2 2 2 6 8 7 5 4 4 5 5 5 6 6 7 8 8 8 8 8 9 10 10 11 12 12
1 1 1 1 1 2 2 2 2 2 1 2 2 2 2 3 3 3 3 3 2 4 7 7 5 4 4 4 4 5 6 7 8 8 8 8 8 8 9 10 11 12 12
1 1 1 0 1 1 2 2 2 1 1 1 2 2 2 3 3 2 2 2 2 2 3 8 7 5 4 3 3 3 4 6 7 8 8 9 9 9 9 10 11 11 12
1 1 1 1 1 1 1 1 1 1 1 2 2 1 2 2 2 2 2 2 2 3 3 4 5 7 7 5 4 4 4 4 5 5 6 7 8 8 9 10 10 11 11
1 1 1 0 1 1 1 2 2 2 2 1 2 2 2 3 2 2 2 1 2 3 3 3 3 2 5 9 6 5 4 4 4 5 6 7 7 7 7 8 9 9 10
1 2 0 1 1 1 2 1 2 1 1 1 2 2 2 4 3 3 2 2 2 2 3 4 3 3 3 3 5 7 5 4 4 5 5 6 6 7 7 7 7 8 9
2 1 1 1 1 2 1 2 2 2 2 2 2 2 2 1 1 3 3 3 3 3 3 3 4 4 4 3 3 6 6 5 4 4 5 5 6 6 6 7 7 7 7
2 2 2 2 2 1 1 3 2 2 3 2 2 2 3 3 3 2 3 3 4 4 4 3 3 4 4 4 3 2 4 4 5 5 5 5 6 6 6 6 7 6 6
3 2 2 2 2 2 1 1 1 3 2 3 2 2 2 3 4 4 3 2 3 3 3 3 3 3 4 5 4 3 5 5 5 5 5 5 5 6 6 6 6 7 7
3 3 2 2 2 1 2 2 2 2 2 3 3 3 3 3 4 4 4 4 4 3 3 3 3 3 4 4 3 4 5 5 5 5 5 5 5 5 5 5 5 5 6
3 3 2 2 2 2 2 2 2 2 2 3 4 3 3 4 4 4 5 5 5 3 3 3 3 3 4 3 3 5 6 6 6 5 5 5 5 5 5 6 6 6 5
2 3 3 3 2 2 2 2 2 2 2 3 4 4 4 4 4 4 5 5 5 5 4 4 3 3 3 3 2 5 5 7 6 6 5 5 5 5 5 6 6 6 7
3 3 3 3 3 3 2 2 2 2 2 3 4 4 4 4 4 4 5 5 6 6 5 3 3 3 3 3 3 5 4 6 7 6 6 6 5 5 5 6 6 7 7
3 4 4 3 3 3 3 3 3 2 3 3 3 4 4 4 4 4 4 5 5 6 6 4 3 3 3 3 4 5 5 7 8 7 7 7 7 7 7 7 7 7 7
4 4 4 4 4 4 3 3 4 3 3 3 4 4 4 5 5 4 4 5 5 6 6 6 4 2 3 4 3 5 6 6 6 8 7 7 7 8 8 8 7 7 7
5 5 4 4 4 4 4 4 4 3 4 4 4 4 5 4 4 5 4 5 5 5 6 7 5 4 4 4 4 5 5 5 5 8 9 8 7 8 8 8 8 7 7
5 5 5 5 5 4 4 4 4 4 4 5 5 5 5 5 5 4 5 5 5 5 5 6 6 4 4 4 4 5 6 5 6 6 9 9 8 8 8 8 7 7 7
6 6 6 6 5 5 5 5 5 5 5 5 5 5 5 4 5 5 4 4 5 5 5 5 5 4 4 3 4 5 5 4 5 5 4 6 8 10 9 8 8 7 7
6 6 6 6 6 5 4 4 5 5 5 6 5 5 5 3 3 4 5 4 4 5 5 5 5 4 4 4 5 5 5 5 5 5 4 4 5 6 7 9 9 8 8
6 6 5 5 5 4 2 2 4 5 5 5 5 5 4 4 3 4 4 5 5 5 5 5 5 5 5 5 5 6 5 5 5 3 4 4 4 4 4 4 6 8 8
6 6 6 6 5 4 3 3 4 5 5 5 5 5 5 3 2 3 4 5 5 5 6 6 6 6 6 5 5 7 6 6 6 3 4 5 4 5 4 3 8 8 7
6 6 6 6 5 4 4 4 4 6 6 5 5 5 4 4 3 4 4 4 4 4 4 5 5 6 6 5 6 7 7 7 6 5 4 5 4 4 3 2 8 8 8
5 5 5 5 5 4 4 4 5 5 5 5 5 4 4 4 2 4 5 5 4 4 3 4 5 5 4 5 5 5 5 5 5 4 3 4 4 3 3 3 4 9 9
4 4 4 5 5 5 5 5 6 5 4 4 4 4 3 2 2 3 4 4 4 4 5 4 4 5 5 5 6 7 6 6 6 4 2 3 3 2 3 2 2 3 5
Wind_Direction
129 126 119 147 162 153 173 180 165 165 181 182 186 170 158 142 148 140 126 135 149 161 172 183 194 198 202 205 210 214 215 213 219 221 221 223 225 225 225 226 223 222 221
118 158 150 157 159 176 173 184 181 188 207 186 200 187 203 171 155 177 156 150 157 165 172 179 190 200 204 208 212 214 214 215 216 215 217 221 225 226 227 229 226 225 225
138 191 169 176 150 166 167 181 187 199 205 199 202 203 202 201 172 186 197 186 165 167 172 174 178 193 200 206 210 212 212 213 212 215 218 223 226 230 232 234 230 228 227
162 239 202 168 147 176 177 186 201 200 199 214 206 212 197 184 195 200 200 203 197 171 163 165 170 181 186 194 203 213 217 218 216 219 222 225 226 231 236 236 235 233 231
213 239 236 134 192 189 190 206 156 208 196 213 207 196 205 192 187 196 192 200 197 188 169 157 170 177 185 196 202 211 217 221 218 222 228 229 228 229 233 234 235 235 233
192 241 206 198 230 190 176 160 164 201 222 225 240 190 202 188 192 191 229 207 203 203 193 176 181 183 188 198 211 224 227 224 222 225 229 231 231 231 234 235 238 237 234
175 242 277 216 250 188 175 182 191 184 206 208 232 206 193 189 197 188 212 233 205 199 193 189 199 199 184 189 199 218 228 231 232 230 231 233 233 231 233 235 237 236 235
221 207 216 233 232 188 167 178 208 227 194 201 249 244 217 190 199 194 200 213 221 205 203 198 188 199 228 202 178 195 211 220 229 232 232 235 234 233 231 234 237 237 237
217 238 213 231 235 237 195 209 228 235 227 213 255 281 274 254 223 188 206 218 221 229 229 217 212 208 221 221 205 183 197 212 220 233 235 237 234 236 236 233 234 237 238
208 210 214 219 242 243 212 232 209 253 254 243 221 268 297 323 285 248 209 207 211 224 243 251 240 219 227 228 201 170 183 209 222 232 237 240 237 235 235 234 236 237 235
207 208 208 213 231 243 227 271 260 263 258 271 269 263 263 254 263 272 269 257 232 226 230 246 251 241 235 235 231 200 177 202 219 230 235 237 241 236 232 231 232 233 232
202 199 209 218 232 246 223 238 250 245 268 281 280 273 274 266 263 265 268 254 251 239 239 248 256 249 242 237 225 155 173 197 209 220 228 234 241 238 237 235 236 233 235
204 197 216 221 229 236 240 239 232 258 253 258 263 266 274 280 283 278 278 276 274 260 242 245 243 247 245 241 208 176 183 195 206 215 221 227 230 230 234 236 233 231 236
212 200 213 216 217 225 234 234 237 235 242 252 262 270 270 274 276 274 273 279 278 269 246 251 248 244 249 243 208 204 202 187 202 213 222 225 224 219 220 225 224 228 234
205 192 207 215 216 214 222 235 244 258 264 262 264 260 265 269 266 268 269 269 275 281 274 245 250 242 244 238 195 227 224 187 198 213 222 225 226 222 219 220 225 231 235
210 207 208 213 218 215 213 229 232 236 252 261 273 284 279 279 279 270 264 264 266 272 279 278 255 252 256 255 201 233 232 194 201 213 222 229 233 227 222 222 226 230 231
206 212 216 218 221 226 224 230 243 236 246 257 265 268 273 286 283 281 275 265 260 261 267 277 274 252 243 261 245 248 238 229 210 195 210 227 235 233 227 225 227 229 229
211 210 214 219 224 226 230 232 245 250 255 259 265 271 274 270 274 279 285 279 271 261 259 268 272 260 249 248 245 249 247 239 239 187 199 219 231 233 230 227 227 227 227
212 215 217 220 225 226 228 234 240 251 259 264 268 270 273 274 275 279 275 279 278 271 264 263 262 263 258 251 252 249 247 246 252 209 200 210 221 228 227 224 223 225 224
213 218 219 223 226 225 229 236 242 248 257 264 268 269 270 270 270 273 270 273 280 282 272 267 266 261 257 252 252 258 254 241 253 256 235 229 216 216 217 217 218 223 223
214 215 219 222 226 223 226 233 245 248 256 262 263 264 262 264 290 283 287 287 281 278 277 271 268 267 268 269 264 264 263 259 244 257 254 247 226 225 214 213 213 217 219
211 213 217 217 221 225 176 223 258 256 255 257 262 262 252 232 227 244 280 287 285 276 281 280 271 272 273 269 270 269 270 264 265 247 253 257 246 244 235 231 188 193 207
209 211 213 210 214 216 177 203 244 258 258 260 264 269 272 266 242 262 251 242 258 258 264 273 274 274 275 273 272 266 264 270 273 270 257 256 246 245 236 204 158 179 195
211 209 208 208 215 213 177 204 236 239 250 254 257 261 270 283 289 293 276 272 272 270 260 261 271 273 276 276 264 264 269 261 261 253 240 259 256 258 256 210 161 177 191
209 206 207 210 219 220 185 200 236 244 246 251 253 253 258 270 318 304 272 272 278 282 263 259 276 278 285 274 272 265 264 264 269 262 238 254 261 260 259 241 179 178 191
208 213 216 220 223 228 190 195 226 245 248 256 252 243 210 254 286 273 265 274 278 288 297 280 260 248 251 244 234 244 256 264 272 269 233 244 260 259 262 240 216 198 203
Height
1555 1556 1556 1556 1558 1558 1558 1559 1559 1559 1560 1561 1561 1562 1562 1562 1562 1563 1562 1561 1561 1561 1562 1562 1562 1563 1563 1563 1564 1564 1564 1565 1565 1566 1566 1567 1567 1568 1569 1569 1570 1570 1571
1555 1556 1556 1556 1557 1558 1558 1558 1559 1559 1560 1560 1561 1561 1561 1562 1561 1562 1562 1561 1561 1561 1561 1561 1561 1562 1562 1562 1563 1563 1563 1563 1563 1564 1564 1565 1566 1566 1567 1567 1568 1568 1569
1555 1556 1556 1556 1557 1557 1557 1558 1558 1558 1559 1560 1560 1560 1560 1561 1561 1561 1561 1561 1561 1560 1560 1560 1561 1561 1561 1561 1561 1561 1561 1561 1562 1562 1563 1563 1564 1564 1564 1565 1565 1566 1567
1555 1555 1556 1556 1556 1557 1557 1557 1558 1558 1559 1559 1559 1559 1559 1559 1560 1560 1560 1560 1561 1561 1560 1560 1560 1560 1560 1560 1560 1560 1560 1560 1560 1560 1561 1561 1561 1561 1562 1562 1563 1563 1564
1555 1555 1555 1555 1556 1556 1556 1557 1557 1557 1557 1558 1558 1558 1558 1558 1558 1559 1559 1559 1559 1559 1559 1559 1558 1558 1558 1558 1558 1558 1558 1558 1558 1558 1558 1558 1559 1559 1559 1560 1560 1561 1561
1554 1554 1555 1554 1555 1556 1556 1555 1555 1556 1556 1557 1557 1557 1557 1557 1557 1557 1558 1558 1558 1558 1558 1558 1558 1557 1557 1557 1557 1557 1557 1556 1556 1556 1556 1556 1556 1557 1557 1557 1558 1558 1558
1554 1554 1554 1554 1554 1555 1555 1555 1555 1555 1556 1556 1556 1556 1556 1556 1556 1556 1556 1557 1557 1557 1556 1556 1557 1557 1556 1555 1555 1555 1555 1554 1554 1554 1554 1554 1554 1554 1554 1555 1555 1555 1555
1553 1554 1553 1553 1553 1553 1553 1554 1554 1555 1555 1555 1556 1555 1555 1556 1555 1555 1555 1555 1555 1556 1555 1555 1555 1554 1555 1555 1554 1553 1553 1552 1552 1552 1551 1551 1551 1552 1552 1552 1552 1552 1552
1552 1552 1552 1552 1552 1553 1553 1553 1553 1553 1554 1554 1554 1555 1554 1553 1554 1554 1553 1554 1554 1554 1554 1554 1553 1553 1553 1553 1552 1551 1551 1550 1550 1550 1549 1549 1549 1549 1549 1549 1549 1549 1549
1551 1551 1551 1551 1551 1552 1552 1552 1552 1552 1553 1553 1553 1553 1553 1553 1553 1552 1553 1552 1552 1552 1552 1552 1552 1551 1551 1551 1550 1549 1549 1548 1548 1548 1547 1547 1547 1547 1546 1546 1546 1546 1546
1550 1550 1550 1550 1549 1550 1550 1550 1551 1551 1551 1552 1552 1552 1551 1551 1551 1551 1551 1551 1550 1550 1550 1549 1549 1549 1549 1549 1548 1547 1546 1546 1546 1545 1545 1545 1544 1544 1544 1544 1544 1543 1544
1549 1548 1549 1548 1549 1549 1549 1549 1549 1549 1549 1549 1550 1550 1550 1550 1549 1549 1549 1548 1548 1548 1547 1547 1547 1546 1546 1546 1545 1544 1544 1543 1543 1543 1543 1542 1542 1542 1541 1541 1541 1541 1541
1547 1547 1547 1547 1547 1547 1547 1547 1547 1547 1547 1547 1547 1548 1548 1548 1548 1547 1547 1546 1546 1546 1545 1545 1544 1544 1544 1543 1542 1541 1541 1541 1540 1540 1540 1540 1539 1539 1539 1539 1539 1539 1538
1545 1545 1545 1545 1545 1545 1545 1545 1546 1545 1545 1545 1545 1545 1545 1545 1545 1545 1545 1544 1543 1543 1542 1542 1542 1541 1541 1540 1539 1538 1538 1538 1538 1537 1537 1537 1537 1537 1536 1536 1536 1536 1536
1543 1543 1543 1543 1543 1543 1543 1543 1544 1543 1544 1544 1544 1543 1543 1543 1543 1542 1542 1542 1542 1540 1539 1539 1539 1538 1538 1537 1536 1535 1535 1535 1534 1534 1534 1534 1534 1534 1534 1534 1533 1533 1533
1541 1541 1541 1541 1541 1541 1541 1541 1541 1541 1541 1541 1541 1540 1540 1540 1540 1539 1539 1539 1539 1538 1537 1537 1536 1536 1535 1535 1533 1533 1532 1531 1531 1531 1531 1531 1531 1531 1531 1531 1530 1530 1529
1538 1538 1538 1539 1539 1539 1539 1539 1539 1539 1539 1539 1538 1538 1537 1537 1537 1537 1536 1536 1535 1535 1534 1534 1533 1532 1531 1531 1530 1530 1529 1529 1528 1527 1527 1527 1527 1527 1527 1527 1527 1526 1526
1535 1536 1536 1537 1537 1537 1537 1537 1537 1537 1536 1536 1536 1535 1535 1534 1533 1533 1533 1532 1532 1531 1531 1530 1529 1529 1528 1527 1527 1526 1526 1526 1525 1524 1524 1524 1524 1524 1523 1523 1523 1523 1522
1532 1533 1533 1534 1534 1534 1534 1534 1534 1534 1534 1534 1533 1532 1532 1531 1530 1530 1529 1529 1529 1529 1528 1527 1526 1525 1525 1524 1523 1523 1523 1522 1522 1522 1520 1520 1520 1520 1520 1519 1519 1519 1519
1529 1529 1530 1531 1531 1531 1531 1531 1531 1531 1531 1531 1530 1529 1529 1528 1528 1527 1527 1526 1526 1525 1525 1524 1523 1522 1522 1521 1520 1520 1520 1519 1519 1519 1517 1517 1516 1516 1515 1515 1515 1515 1515
1526 1526 1527 1527 1528 1529 1529 1528 1528 1528 1528 1527 1527 1526 1525 1525 1524 1524 1524 1524 1523 1522 1522 1521 1520 1519 1519 1518 1517 1517 1516 1516 1515 1515 1514 1513 1513 1512 1512 1511 1511 1511 1511
1522 1523 1523 1524 1525 1526 1525 1525 1525 1525 1525 1524 1524 1523 1522 1522 1521 1521 1520 1520 1519 1519 1518 1517 1516 1516 1514 1514 1513 1513 1513 1512 1511 1511 1510 1510 1510 1509 1509 1509 1508 1508 1508
1519 1519 1520 1520 1521 1521 1522 1522 1522 1522 1522 1521 1521 1520 1520 1520 1518 1517 1517 1516 1516 1515 1514 1514 1512 1511 1511 1510 1510 1509 1509 1508 1507 1507 1506 1506 1506 1505 1505 1505 1504 1504 1504
1515 1515 1516 1516 1517 1518 1518 1518 1518 1518 1518 1518 1517 1517 1516 1516 1515 1514 1513 1513 1512 1512 1511 1510 1508 1507 1507 1506 1505 1505 1505 1504 1503 1502 1502 1503 1502 1502 1502 1502 1501 1501 1501
1512 1512 1513 1513 1514 1514 1515 1515 1515 1515 1515 1514 1514 1513 1512 1512 1511 1510 1510 1509 1509 1508 1507 1506 1505 1504 1502 1502 1501 1502 1501 1501 1500 1500 1499 1499 1499 1499 1499 1498 1498 1497 1497
1509 1510 1511 1511 1511 1511 1511 1511 1511 1512 1512 1511 1511 1510 1509 1508 1507 1507 1507 1506 1505 1504 1503 1502 1501 1500 1499 1498 1498 1498 1498 1498 1498 1497 1496 1496 1496 1496 1496 1496 1495 1495 1495